Starlink 32037

operational
NORAD ID: 60283 Int'l Des: 2024-132 Owner: SPXS Country: US Constellation: starlink
LEOCIRCULAR

About Starlink 32037

Description loading...

Live Position

Loading 3D Globe...

Upcoming Passes

Altitude History

Altitude vs Time

uPlot chart will show altitude changes over time

Two-Line Element Set

1 60283U 24132F 25306.22527427 .00035716 00000-0 12189-2 0 9993
2 60283 53.1603 284.5886 0002419 80.2719 279.8555 15.30019687 72047
Epoch: Nov 2, 2025 • Age: 24 hours

Current Status

Altitude 477.6 km
Velocity 7.63 km/s
Sub-Earth Point -5.06°S, 25.06°W
Launch Date Jul 28, 2024
Age 1.2 years
Type internet

Technical Details

Classification Payload
Mass 730.00 kg
Dry Mass 700.00 kg
Total Mass 730.00 kg
Length 0.30 m
Diameter 4.10 m
Span 29.00 m
Shape Box + pan
Manufacturer SPXS
Bus Type Starlink V2M
Phase Status In Orbit
Owner/State SPXS/US

Large Constellations

Loading constellations...